Temp
22 22 22 22 22 22 21 21 22 22 22 21 22 21 21 21 20 19 18 19 20 20 20 20 19 19 19 19 19 18 17 17 17 16 17 17 17 16 16 16 16 16
22 23 22 22 22 22 22 22 22 22 22 21 21 21 21 20 20 19 18 18 19 20 20 20 20 19 19 19 19 18 17 17 17 16 16 17 17 16 16 15 15 16
22 22 23 22 22 22 22 22 22 22 22 22 21 20 20 20 20 19 19 19 20 20 21 21 20 20 19 19 18 18 18 18 17 16 16 16 17 17 16 16 15 15
22 22 23 23 23 23 22 22 22 22 21 22 21 20 20 19 19 20 20 20 20 21 21 21 21 20 20 19 18 18 18 18 18 17 16 16 17 17 17 16 15 15
22 23 23 23 23 23 22 22 22 22 21 21 21 21 20 20 20 20 20 20 20 21 21 21 21 21 20 20 18 18 18 18 18 18 17 16 17 17 17 16 15 15
22 23 23 23 23 23 22 23 22 22 22 22 22 21 20 20 20 21 21 21 21 21 21 20 20 20 20 20 19 18 17 18 18 18 18 17 17 17 17 16 16 15
23 23 23 23 23 23 23 23 22 22 22 22 21 21 20 20 21 21 21 21 21 21 21 21 20 20 20 20 19 18 18 17 17 17 18 18 18 18 17 16 16 16
23 23 23 23 23 23 22 22 22 22 22 22 21 21 20 20 21 22 22 21 21 21 21 21 20 20 20 20 20 19 19 18 17 16 17 18 18 18 17 16 16 16
23 23 23 23 23 23 23 22 22 22 22 22 21 21 20 20 21 22 22 21 21 21 20 20 21 20 20 20 20 20 19 19 18 17 17 18 19 18 17 16 16 16
24 24 24 23 23 23 23 23 22 22 22 22 21 21 20 20 21 22 22 21 21 21 20 20 21 21 20 20 21 20 19 19 18 18 18 18 19 19 17 16 16 16
24 24 24 24 24 23 23 23 23 23 23 22 22 21 20 21 21 21 21 21 21 21 21 21 21 21 20 20 21 20 19 19 19 18 18 19 19 18 17 16 15 16
25 24 24 24 24 24 23 23 23 22 22 22 22 21 20 21 21 21 21 21 21 22 22 21 21 21 21 21 21 20 20 19 19 19 19 19 19 18 17 16 15 15
25 25 24 24 24 24 23 23 22 22 21 21 22 21 21 20 21 21 21 21 22 22 22 22 21 21 21 20 20 20 20 19 19 19 19 19 18 18 18 16 16 16
26 25 25 24 24 24 23 23 22 22 21 21 21 21 21 20 20 21 21 21 21 21 21 22 21 21 21 20 20 20 20 19 19 19 19 19 18 18 18 16 16 16
26 26 25 25 24 24 23 23 22 22 22 21 21 21 21 20 19 19 21 22 21 21 21 21 21 21 21 21 20 20 20 20 20 19 19 19 18 18 17 16 16 16
26 26 25 25 24 24 23 23 22 22 22 22 21 21 21 20 19 19 20 21 21 21 21 21 21 21 21 21 20 20 20 20 19 19 19 19 18 17 16 16 16 16
25 25 25 24 24 23 23 23 22 22 22 22 22 21 21 20 19 19 19 20 21 21 21 21 21 21 21 21 20 20 20 19 19 19 19 18 17 17 17 16 16 16
24 24 24 24 23 23 22 22 22 22 22 22 22 21 21 20 20 19 19 19 20 20 21 21 21 21 21 21 20 20 19 19 19 19 19 18 17 17 17 17 16 16
24 24 23 23 23 22 22 22 22 21 21 21 21 21 20 20 19 19 19 19 19 19 20 20 21 21 21 20 20 20 19 19 19 19 18 18 17 17 16 16 16 16
23 23 22 22 22 22 22 21 21 21 21 21 21 21 20 19 19 19 19 19 19 19 19 19 20 21 21 19 19 19 19 18 18 18 18 17 17 16 16 16 16 16
23 22 22 22 22 22 22 21 21 21 21 21 20 20 20 19 19 19 19 19 18 18 18 18 19 20 20 19 19 19 18 18 18 17 17 17 17 16 16 16 16 16
22 22 22 22 22 21 21 20 20 20 20 20 20 19 19 19 19 19 19 19 18 18 18 18 18 19 19 18 18 18 17 18 18 17 17 17 16 16 16 16 16 16
22 23 23 22 21 21 20 20 20 20 20 20 19 19 19 19 19 18 18 18 18 18 17 17 17 18 18 17 17 17 17 17 17 17 17 17 16 16 16 16 16 16
22 22 22 22 21 20 19 20 20 19 19 19 19 19 19 19 19 18 18 18 18 18 17 17 17 17 17 17 17 17 17 17 17 17 17 16 16 16 16 16 16 16
22 22 22 22 21 20 20 20 19 19 19 19 19 19 19 18 18 18 18 17 17 17 17 17 17 17 17 17 17 17 17 17 16 16 16 15 15 16 16 16 16 16
23 23 22 22 21 20 20 20 19 19 19 19 19 19 19 18 18 18 17 17 17 17 16 16 16 17 17 17 17 17 17 16 15 15 15 15 16 16 16 17 17 17
Height
1519 1522 1524 1526 1527 1529 1531 1532 1533 1535 1536 1537 1538 1540 1541 1542 1544 1544 1544 1545 1547 1548 1549 1550 1550 1551 1552 1552 1553 1554 1554 1555 1557 1558 1558 1559 1560 1560 1561 1562 1562 1562
1516 1519 1521 1523 1524 1526 1528 1529 1530 1532 1533 1535 1536 1537 1539 1540 1541 1542 1543 1543 1545 1546 1547 1548 1549 1549 1550 1551 1551 1552 1552 1553 1555 1556 1557 1558 1558 1559 1559 1560 1561 1561
1513 1516 1517 1519 1521 1523 1525 1526 1528 1529 1531 1533 1534 1535 1536 1538 1539 1540 1541 1541 1542 1544 1545 1545 1547 1548 1549 1549 1550 1551 1551 1551 1552 1554 1555 1556 1557 1557 1558 1559 1560 1560
1510 1512 1514 1516 1518 1520 1522 1524 1525 1527 1528 1530 1532 1533 1534 1535 1536 1537 1539 1539 1540 1541 1542 1543 1544 1545 1546 1547 1548 1549 1550 1550 1551 1552 1553 1554 1555 1556 1557 1558 1558 1559
1507 1509 1511 1513 1515 1517 1519 1520 1522 1524 1525 1527 1529 1531 1531 1532 1533 1535 1537 1538 1538 1540 1541 1541 1542 1542 1543 1545 1546 1547 1548 1548 1549 1550 1551 1551 1553 1554 1555 1556 1557 1557
1503 1505 1507 1509 1511 1514 1516 1517 1519 1521 1522 1524 1526 1528 1529 1529 1531 1532 1534 1536 1537 1538 1539 1540 1541 1541 1542 1543 1544 1545 1547 1547 1547 1548 1549 1549 1550 1551 1553 1554 1555 1555
1499 1501 1503 1505 1508 1510 1512 1514 1516 1518 1520 1522 1523 1524 1525 1526 1528 1530 1531 1533 1534 1535 1536 1537 1538 1540 1541 1541 1542 1543 1545 1546 1546 1546 1546 1547 1548 1549 1550 1552 1553 1554
1495 1497 1500 1502 1504 1507 1509 1511 1513 1515 1517 1519 1520 1521 1522 1523 1525 1527 1529 1530 1531 1533 1534 1535 1536 1537 1538 1539 1540 1541 1542 1543 1545 1545 1545 1545 1546 1548 1549 1550 1551 1552
1491 1493 1496 1499 1501 1503 1505 1508 1509 1512 1514 1515 1516 1518 1518 1520 1523 1525 1526 1526 1529 1531 1532 1532 1533 1534 1535 1536 1537 1538 1539 1540 1542 1543 1543 1543 1544 1545 1547 1548 1549 1549
1487 1489 1492 1495 1497 1499 1502 1504 1506 1508 1510 1512 1513 1515 1515 1517 1519 1522 1523 1523 1525 1527 1529 1530 1530 1531 1532 1533 1533 1535 1536 1538 1540 1541 1541 1541 1542 1543 1544 1545 1547 1547
1483 1485 1488 1490 1493 1495 1498 1501 1503 1504 1506 1508 1510 1511 1512 1513 1516 1518 1519 1520 1521 1523 1524 1525 1527 1528 1529 1530 1531 1532 1533 1535 1537 1538 1539 1539 1540 1541 1542 1543 1545 1545
1479 1481 1484 1486 1489 1492 1494 1497 1499 1501 1502 1504 1506 1508 1509 1510 1512 1514 1514 1515 1518 1519 1519 1521 1523 1525 1526 1527 1528 1529 1530 1532 1534 1535 1536 1537 1538 1539 1540 1541 1543 1543
1474 1477 1479 1482 1485 1488 1491 1493 1496 1498 1499 1500 1503 1505 1506 1507 1508 1510 1511 1512 1514 1516 1516 1518 1519 1521 1523 1524 1525 1526 1528 1529 1531 1533 1534 1535 1535 1536 1538 1539 1540 1541
1470 1473 1476 1479 1481 1484 1487 1490 1492 1495 1496 1497 1499 1501 1503 1504 1504 1505 1507 1509 1510 1511 1513 1515 1516 1518 1519 1521 1522 1523 1525 1527 1528 1530 1531 1532 1533 1534 1535 1536 1537 1538
1467 1470 1472 1475 1478 1481 1484 1486 1489 1492 1494 1494 1495 1497 1499 1501 1501 1501 1502 1504 1506 1507 1509 1511 1512 1514 1515 1517 1518 1520 1521 1523 1524 1526 1528 1529 1531 1532 1533 1534 1535 1536
1463 1466 1469 1472 1475 1477 1480 1483 1486 1489 1491 1492 1492 1494 1495 1497 1496 1496 1498 1500 1501 1503 1504 1506 1507 1509 1510 1513 1515 1517 1518 1519 1521 1523 1525 1527 1529 1530 1531 1532 1533 1534
1460 1463 1465 1468 1471 1473 1476 1479 1482 1485 1488 1489 1489 1490 1492 1492 1492 1492 1493 1495 1497 1499 1500 1502 1503 1504 1506 1509 1512 1514 1516 1517 1518 1521 1523 1524 1526 1527 1528 1529 1530 1532
1457 1460 1462 1465 1467 1470 1473 1476 1479 1482 1484 1486 1486 1487 1488 1489 1489 1490 1491 1492 1494 1495 1497 1498 1499 1501 1503 1507 1510 1512 1513 1514 1516 1518 1520 1521 1523 1524 1525 1526 1527 1529
1454 1456 1459 1462 1464 1467 1470 1472 1475 1478 1480 1482 1483 1484 1487 1488 1489 1490 1490 1490 1491 1492 1494 1496 1497 1498 1500 1504 1508 1510 1512 1512 1513 1515 1516 1518 1520 1521 1523 1524 1525 1526
1451 1453 1456 1459 1461 1464 1467 1469 1472 1475 1477 1480 1481 1482 1485 1487 1488 1489 1489 1490 1490 1491 1493 1493 1494 1495 1498 1503 1507 1508 1510 1511 1512 1513 1515 1516 1518 1520 1522 1523 1524 1524
1448 1451 1454 1456 1459 1463 1465 1467 1470 1472 1474 1477 1478 1479 1481 1483 1485 1487 1488 1488 1489 1490 1491 1491 1491 1493 1495 1500 1504 1505 1508 1510 1510 1512 1513 1516 1518 1519 1520 1522 1522 1523
1445 1448 1452 1455 1458 1461 1463 1465 1467 1469 1471 1473 1475 1476 1477 1479 1482 1484 1485 1486 1487 1487 1488 1489 1490 1491 1493 1497 1502 1504 1506 1508 1508 1509 1510 1513 1515 1516 1517 1519 1520 1521
1443 1447 1451 1453 1456 1458 1460 1463 1465 1466 1469 1471 1473 1474 1475 1476 1478 1480 1482 1483 1484 1485 1486 1487 1489 1490 1491 1496 1500 1501 1502 1504 1505 1505 1507 1509 1512 1513 1514 1515 1517 1517
1442 1446 1449 1451 1453 1455 1457 1460 1462 1464 1466 1468 1470 1472 1473 1474 1476 1477 1479 1480 1481 1483 1484 1485 1487 1488 1489 1492 1495 1496 1497 1499 1501 1502 1503 1507 1509 1510 1510 1511 1513 1514
1441 1444 1447 1449 1451 1453 1454 1456 1458 1461 1464 1466 1468 1470 1472 1473 1473 1474 1476 1477 1479 1481 1482 1482 1485 1486 1488 1489 1491 1493 1494 1496 1497 1498 1500 1504 1507 1507 1507 1508 1510 1511
1438 1441 1444 1446 1448 1450 1452 1453 1455 1459 1462 1464 1466 1468 1470 1470 1471 1472 1473 1474 1476 1479 1479 1481 1483 1485 1487 1488 1489 1491 1493 1494 1495 1496 1498 1502 1504 1505 1505 1506 1507 1508
Wind_Speed
32 31 30 29 28 26 25 25 24 23 23 22 21 20 20 19 18 19 20 17 12 12 11 10 11 11 10 10 13 16 15 12 10 9 8 9 8 7 8 9 8 9
32 31 31 30 29 28 27 26 26 25 24 23 21 20 19 18 19 20 21 19 14 11 11 11 11 11 11 11 11 15 16 13 11 10 8 8 9 8 9 9 9 9
33 32 31 31 30 29 29 28 27 26 25 23 21 20 19 18 19 20 21 21 17 12 11 12 11 11 11 12 11 12 14 13 12 12 10 10 9 9 9 9 10 10
34 33 32 31 30 30 30 29 29 28 26 25 23 22 22 22 22 20 20 21 18 14 13 12 12 11 11 12 12 12 12 12 11 13 13 12 11 11 10 10 10 10
35 34 32 31 31 30 30 30 30 30 28 27 25 25 25 25 24 22 21 21 19 16 15 14 13 13 12 12 13 14 13 11 10 12 14 14 12 11 11 11 11 12
37 36 34 33 32 31 31 32 31 31 30 28 27 27 27 27 26 24 22 21 20 18 17 17 16 14 13 13 14 15 15 13 11 12 14 15 14 12 9 9 11 12
39 38 37 36 34 33 33 33 32 32 31 30 29 29 29 30 28 26 24 22 21 20 19 19 18 16 14 14 14 15 16 15 14 13 13 13 14 13 10 10 12 14
41 40 39 38 37 35 35 34 33 33 32 31 30 30 31 32 29 26 25 24 22 21 21 20 19 18 16 15 15 15 16 17 17 16 14 13 13 13 13 14 15 15
42 41 40 39 39 38 37 36 35 34 33 32 32 32 33 33 30 26 25 25 24 23 22 22 20 20 18 16 15 16 17 17 18 19 18 14 12 12 14 15 15 16
43 42 41 40 40 39 38 38 37 36 34 34 33 33 34 34 31 28 27 27 26 25 24 23 23 22 20 18 16 16 16 17 18 20 20 17 13 13 14 14 15 16
43 43 42 42 41 40 40 39 38 38 37 36 35 35 35 35 32 30 31 30 28 27 26 25 26 25 22 19 18 17 17 17 19 20 20 18 15 14 14 15 15 16
44 44 43 43 42 41 40 39 38 37 37 37 38 37 37 37 35 34 34 33 30 29 29 27 27 26 23 20 20 19 18 19 20 20 20 18 16 15 16 17 17 18
45 45 44 43 42 41 40 39 38 36 36 37 37 37 38 39 38 38 37 36 32 31 30 28 27 27 25 23 22 20 20 20 21 21 20 18 17 16 17 18 18 19
45 44 44 43 43 42 41 38 37 36 36 35 35 36 36 34 35 39 40 37 35 33 31 28 28 28 27 26 24 22 21 22 22 22 21 20 19 18 18 18 18 17
44 43 44 43 42 42 41 40 38 36 36 36 35 35 32 29 31 38 41 39 37 35 32 30 29 30 30 28 27 25 24 23 23 23 22 21 20 18 18 17 17 17
43 43 43 43 42 42 41 41 39 37 36 36 36 35 33 31 33 38 40 40 39 36 34 32 32 32 32 30 27 26 25 25 24 23 22 22 21 20 19 18 17 16
41 42 42 42 43 42 40 40 39 38 36 36 37 37 35 35 37 38 39 39 39 38 36 35 34 35 34 31 28 27 27 26 24 22 23 22 22 21 20 19 17 17
40 41 41 41 41 40 39 39 38 38 37 36 38 38 37 37 38 39 38 37 37 38 37 37 36 36 35 32 28 27 27 26 23 22 23 23 23 22 21 18 17 17
40 40 40 39 39 38 37 37 37 37 36 36 36 36 36 36 37 38 37 36 35 36 37 36 36 36 35 30 26 26 27 25 23 23 24 24 23 21 19 18 16 16
40 39 38 37 37 36 34 33 35 35 34 34 35 35 35 35 36 37 36 35 35 34 34 35 36 37 34 28 25 26 26 24 24 24 24 23 21 20 19 18 16 16
39 38 36 35 34 32 30 29 30 31 31 32 33 34 35 35 35 36 35 35 34 33 33 34 35 35 32 28 26 26 24 23 23 23 23 22 22 22 21 19 17 17
40 37 35 32 31 29 27 25 26 26 26 29 32 32 32 33 32 33 35 35 34 33 32 32 34 34 30 25 24 23 22 22 22 22 22 22 22 24 22 19 17 18
38 36 33 29 27 25 24 24 25 24 23 27 30 31 31 30 29 29 32 35 35 33 32 31 32 33 29 24 23 22 20 20 21 22 22 21 23 24 21 16 16 18
32 32 30 26 23 23 22 21 21 23 24 26 29 30 30 29 28 26 29 32 33 33 32 31 31 32 29 25 25 25 21 18 18 19 19 18 19 20 18 15 15 16
27 28 28 24 21 22 21 18 18 20 21 23 26 28 28 27 27 27 28 30 30 29 29 29 30 30 27 25 26 24 20 18 18 17 16 14 13 15 17 16 13 13
23 25 25 23 21 21 19 16 16 16 17 19 22 24 26 27 27 27 28 29 28 26 26 27 27 28 28 28 28 23 19 18 19 17 15 14 15 16 16 14 12 12
Wind_Direction
214 215 216 216 216 214 212 217 222 221 219 223 228 229 232 232 220 214 225 229 214 210 217 211 210 212 212 211 200 197 209 215 201 203 218 220 217 212 219 234 235 226
213 214 215 215 215 214 214 218 223 223 221 223 228 231 231 225 213 210 221 229 221 211 216 213 212 216 215 220 217 206 206 205 192 195 218 226 223 221 218 228 244 249
212 213 215 214 214 215 214 218 224 224 222 223 224 225 223 220 217 216 220 228 230 219 215 216 215 215 215 217 218 207 201 201 189 187 210 230 232 231 224 225 237 246
212 213 215 215 215 216 216 218 223 224 223 224 221 217 219 221 223 225 226 228 231 225 218 220 217 214 213 213 216 210 199 197 191 185 200 223 235 237 231 227 234 236
214 214 215 217 216 216 218 219 222 223 223 224 222 217 219 223 225 229 231 229 229 227 222 221 219 215 215 211 212 216 206 198 199 193 198 214 227 233 230 226 234 239
215 216 217 218 218 217 219 220 222 223 223 223 223 221 220 222 228 234 237 235 230 226 223 223 221 216 217 213 210 214 213 208 211 209 207 213 222 225 222 226 238 244
215 217 219 220 220 220 220 221 222 222 223 224 224 223 221 222 230 239 243 241 232 224 222 223 223 217 217 220 216 212 212 212 213 216 214 211 216 219 213 218 234 241
217 218 220 221 221 221 221 221 222 223 224 223 222 222 223 225 232 240 244 241 233 226 221 221 223 218 215 222 225 215 210 211 211 213 215 210 207 212 212 216 229 239
217 219 221 221 221 221 221 221 222 224 224 223 221 221 224 227 232 239 244 241 234 227 221 221 223 219 216 222 226 219 212 212 211 209 213 216 212 213 216 219 228 237
217 219 221 221 222 223 223 223 225 226 227 226 222 220 223 228 232 236 239 237 231 227 223 224 226 222 217 221 226 222 214 212 213 212 216 221 222 221 220 222 229 238
217 218 220 222 224 224 225 226 227 228 228 227 224 220 221 228 232 233 233 231 229 231 231 228 227 224 219 221 227 223 215 214 215 217 221 223 222 220 219 223 232 241
218 218 220 223 223 224 225 225 224 223 226 227 226 222 222 229 233 233 232 231 230 234 235 231 227 226 222 221 225 223 215 215 217 219 223 225 224 222 222 225 231 237
219 219 219 221 223 222 222 221 220 218 220 224 225 223 224 230 234 234 233 233 233 232 233 232 228 226 225 221 222 222 218 217 218 219 222 224 225 226 227 230 233 239
221 221 220 220 222 223 220 218 217 215 215 219 220 222 224 227 232 235 234 233 233 231 231 233 229 226 226 222 219 220 219 218 220 221 222 223 224 227 228 230 235 242
221 221 221 220 221 221 220 218 216 214 215 217 219 220 221 219 223 232 234 233 233 232 231 232 229 226 226 222 218 218 218 219 221 223 223 224 223 226 228 230 235 241
219 220 220 219 219 220 220 218 216 214 215 217 219 220 219 217 218 226 232 233 232 232 232 231 229 228 228 224 219 219 219 219 221 221 223 225 224 224 226 230 235 240
217 218 218 218 218 218 218 217 216 214 214 217 220 221 219 219 221 224 228 231 232 232 231 231 230 230 229 225 220 219 219 218 220 222 224 224 223 225 228 230 234 239
215 215 216 217 215 214 214 216 216 215 214 216 220 222 219 218 221 223 227 230 231 231 232 232 231 232 231 227 222 220 218 218 222 224 225 225 225 228 233 235 237 239
212 213 214 214 213 212 212 214 214 214 215 216 219 221 219 217 220 223 227 230 230 231 232 231 231 233 232 227 224 222 220 219 221 223 224 226 228 230 234 238 242 247
210 210 210 212 213 213 213 215 216 216 217 217 218 220 218 218 220 223 226 228 228 229 230 230 232 234 230 227 225 222 220 219 220 222 224 228 232 234 235 239 244 250
205 206 209 213 215 216 216 217 217 218 217 216 217 221 222 222 223 223 224 225 225 227 227 227 231 233 230 229 224 217 216 218 218 222 227 233 238 239 240 243 244 246
205 208 213 215 215 215 215 214 216 219 218 215 216 220 224 226 226 225 225 224 223 224 222 222 227 232 231 226 218 213 216 218 218 223 229 234 235 235 240 247 251 252
209 213 214 214 214 213 213 216 219 219 216 212 213 217 221 225 227 226 225 223 222 222 221 220 226 230 228 219 212 212 215 216 221 227 230 230 231 232 236 242 248 254
209 212 212 212 207 205 209 214 212 208 207 209 214 217 220 223 228 228 224 222 223 223 222 222 226 230 230 221 211 209 210 213 220 223 222 223 227 229 229 232 242 258
206 209 211 210 202 198 203 205 200 199 204 211 216 218 220 224 226 225 222 221 221 219 218 222 225 228 226 211 200 205 215 217 213 207 203 208 217 221 225 231 246 269
202 205 208 208 203 198 196 196 196 193 197 209 216 216 219 222 223 221 220 219 217 214 215 220 223 225 222 209 205 216 223 210 201 200 202 211 222 226 229 238 255 273